Newport News, VA

10:54 PM EST on February 11, 2016 (GMT -0500)
Newport News-Williamsburg International

Weather History for KPHF - May, 2013

Change the Weather History Date:

Friday, May 10, 2013

  Actual Average (KORF) Record (KORF)
Temperature  
Mean Temperature 74 °F 65 °F  
Max Temperature 88 °F 74 °F 96 °F (1963)
Min Temperature 60 °F 56 °F 40 °F (1966)
Degree Days  
Heating Degree Days 0 3  
Month to date heating degree days 36  
Since 1 July heating degree days 3336  
Cooling Degree Days 9 3  
Month to date cooling degree days 24  
Year to date cooling degree days 68  
Growing Degree Days 24 (Base 50)    
Moisture  
Dew Point 57 °F    
Average Humidity 54    
Maximum Humidity 83    
Minimum Humidity 35    
Precipitation  
Precipitation 0.00 in 0.10 in 1.56 in (1979)
Month to date precipitation 1.03  
Year to date precipitation 14.64  
Snow  
Snow 0.00 in 0.00 in 0.00 in (2002)
Month to date snowfall 0.0  
Since 1 July snowfall 5.8  
Snow Depth -    
Sea Level Pressure  
Sea Level Pressure 30.00 in    
Wind  
Wind Speed 5 mph (SW)    
Max Wind Speed 13 mph    
Max Gust Speed 18 mph    
Visibility 10 miles    
Events      
T = Trace of Precipitation, MM = Missing Value Source: NWS Daily Summary

Daily Weather History Graph

Daily Weather History Graph

Search for Another Location

Airport or City:

Trip Planner

Search our weather history database for the weather conditions in past years. The results will help you decide how hot, cold, wet, or windy it might be!

Date:

Astronomy

May. 10, 2013 Rise Set
Actual Time 6:01 AM EDT 8:03 PM EDT
Civil Twilight 5:33 AM EDT 8:32 PM EDT
Nautical Twilight 4:58 AM EDT 9:07 PM EDT
Astronomical Twilight 4:20 AM EDT 9:44 PM EDT
Moon 6:24 AM EDT (5/10) 8:50 PM EDT (5/10)
Length of Visible Light 14h 58m
Length of Day
14h 01m
New Moon, 0% of the Moon is Illuminated
May 10
New Moon
May 18
First Quarter
May 25
Full
May 31
Last Quarter
Jun 8
New

Hourly Weather History & Observations

Time (EDT) Temp. Heat Index Dew Point Humidity Pressure Visibility Wind Dir Wind Speed Gust Speed Precip Events Conditions
12:54 AM 62.6 °F - 55.4 °F 77% 30.03 in 10.0 mi Calm Calm - N/A   Clear
1:54 AM 60.8 °F - 55.4 °F 82% 30.02 in 10.0 mi Calm Calm - N/A   Clear
2:54 AM 62.1 °F - 55.0 °F 78% 30.03 in 10.0 mi Calm Calm - N/A   Clear
3:54 AM 61.0 °F - 55.9 °F 83% 30.01 in 10.0 mi Calm Calm - N/A   Overcast
4:54 AM 66.0 °F - 55.9 °F 70% 30.01 in 10.0 mi Calm Calm - N/A   Mostly Cloudy
5:54 AM 64.9 °F - 55.0 °F 70% 30.02 in 10.0 mi SW 6.9 mph - N/A   Clear
6:54 AM 66.0 °F - 57.0 °F 73% 30.04 in 10.0 mi SW 5.8 mph - N/A   Clear
7:54 AM 69.8 °F - 57.2 °F 64% 30.04 in 10.0 mi WSW 6.9 mph - N/A   Clear
8:54 AM 73.4 °F - 57.2 °F 57% 30.04 in 10.0 mi West 6.9 mph - N/A   Clear
9:54 AM 75.9 °F - 57.9 °F 54% 30.04 in 10.0 mi WSW 5.8 mph - N/A   Clear
10:54 AM 79.0 °F - 59.0 °F 50% 30.04 in 10.0 mi SSW 6.9 mph - N/A   Clear
11:54 AM 82.0 °F 82.4 °F 60.1 °F 47% 30.03 in 10.0 mi WSW 6.9 mph - N/A   Clear
12:54 PM 84.2 °F 83.8 °F 59.0 °F 42% 30.01 in 10.0 mi SW 9.2 mph - N/A   Clear
1:54 PM 87.1 °F 86.5 °F 59.0 °F 39% 30.00 in 10.0 mi SSW 10.4 mph - N/A   Clear
2:54 PM 88.0 °F 86.9 °F 57.9 °F 36% 29.98 in 10.0 mi SW 10.4 mph - N/A   Clear
3:54 PM 86.0 °F 84.7 °F 55.9 °F 36% 29.97 in 10.0 mi SSW 12.7 mph - N/A   Partly Cloudy
4:54 PM 87.1 °F 85.7 °F 55.9 °F 35% 29.96 in 10.0 mi SSW 10.4 mph - N/A   Clear
5:54 PM 86.0 °F 84.7 °F 55.9 °F 36% 29.95 in 10.0 mi SSW 10.4 mph 18.4 mph N/A   Clear
6:54 PM 84.0 °F 83.0 °F 55.9 °F 38% 29.94 in 10.0 mi SSW 10.4 mph - N/A   Clear
7:54 PM 82.0 °F 81.6 °F 55.9 °F 41% 29.93 in 10.0 mi South 9.2 mph - N/A   Clear
8:54 PM 80.1 °F 80.2 °F 55.9 °F 43% 29.95 in 10.0 mi South 11.5 mph - N/A   Clear
9:54 PM 78.1 °F - 57.0 °F 48% 29.96 in 10.0 mi South 11.5 mph - N/A   Clear
10:54 PM 77.0 °F - 57.0 °F 50% 29.95 in 10.0 mi South 10.4 mph - N/A   Clear
11:54 PM 75.9 °F - 57.0 °F 52% 29.95 in 10.0 mi SSW 12.7 mph - N/A   Clear